User: anonymous   Login
Location: Albany
(35.0000°S, 118.0000°E)
Time: 06:38:21
(UTC-04:00)
Language:

Cosmos 1933 - Orbit

View from above orbital plane
View from above orbital plane
View from above satellite
View from above satellite

Ground track
Ground track

The orbit data is extracted from the following two-line orbital elements,

1 18958U 88020A   15090.18852924  .00002667  00000-0  20176-3 0  9993
2 18958 082.5317 163.8733 0013194 146.5173 213.6889 15.01890101470032
Epoch (UTC): 31 March 2015 04:31:28
Eccentricity: 0.0013194
inclination: 82.5317°
perigee height: 552 km
apogee height: 570 km
right ascension of ascending node: 163.8733°
argument of perigee: 146.5173°
revolutions per day: 15.01890101
mean anomaly at epoch: 213.6889°
orbit number at epoch: 47003

The dashed part of the orbit path shows where the satellite is in the earth's shadow,  

DLR